Regional Weather Roundup
Issued by NWS

Home | Current Version | Previous Version | Graphics & Text | Print | Product List | Glossary On
Versions: 1 2 3 4 5 6 7 8 9 10 11 12 13 14 15 16 17 18 19 20 21 22 23 24 25 26 27
000
ASUS45 KBOU 262107
RWRCO

WEATHER ROUNDUP FOR COLORADO
NATIONAL WEATHER SERVICE DENVER/BOULDER CO
300 PM MDT WED APR 26 2017

NOTE: "FAIR" INDICATES FEW OR NO CLOUDS BELOW 12000 FEET WITH NO
SIGNIFICANT WEATHER AND/OR OBSTRUCTIONS TO VISIBILITY.

COZ001>005-013-030-031-262200-
...NORTHWEST COLORADO...

CITY           SKY/WX    TMP DP  RH WIND       PRES   REMARKS
CRAIG          CLOUDY    50  33  52 W9        29.79F
HAYDEN         FAIR      43  27  52 CALM      29.81F
MEEKER         FAIR      49  30  48 CALM      29.80F
MOUNT WERNER   NOT AVBL
STEAMBOAT SPGS CLOUDY    34  32  94 SW3       29.84R
WALDEN           N/A     39  25  56 W15       29.82F
$$

COZ006>008-011-262200-
...WEST CENTRAL VALLEYS...

CITY           SKY/WX    TMP DP  RH WIND       PRES   REMARKS
GRAND JUNCTION CLOUDY    58  27  30 W9        29.81F
MONTROSE       CLOUDY    55  26  32 SW10      29.84F
EAGLE          PTSUNNY   45  27  49 W10G18    29.84R
RIFLE          CLOUDY    54  26  34 W14G26    29.81S
DELTA          PTSUNNY   61  25  25 S8        29.82F
NUCLA          NOT AVBL
$$

COZ017>023-064>068-262200-
...SOUTHWEST COLORADO...

CITY           SKY/WX    TMP DP  RH WIND       PRES   REMARKS
DURANGO        FAIR      53  16  23 W25G33    29.85F
CORTEZ         FAIR      56  20  24 SW15G21   29.88F
PAGOSA SPRINGS FAIR      52  17  25 SW18G24   29.86F
TELLURIDE      CLOUDY    42  18  37 W9G20     29.95S
WOLF CREEK PAS FLURRIES  28  21  74 SW15G22   29.99S WCI  17
$$

COZ009-010-012-014-032>034-037-058>063-262200-
...CENTRAL COLORADO...

CITY           SKY/WX    TMP DP  RH WIND       PRES   REMARKS
ASPEN          LGT RAIN  39  31  72 N9G21     29.83F
BUENA VISTA    PTSUNNY   51  13  22 W17G28    29.79S
COPPER MTN     CLOUDY    28  18  64 NW10G18   29.87S WCI  19
BERTHOUD PASS  CLOUDY    18   7  62 NW24G31   29.84S WCI   0
COTTONWOOD PAS CLOUDY    43  10  26 W9G31     29.84S
GUNNISON       FAIR      45  21  38 SW12G21   29.85F
KREMMLING      CLOUDY    50  30  46 W18G28    29.82S
LEADVILLE      PTSUNNY   38  17  42 NW10G24   29.82F
MONARCH PASS   CLOUDY    27  18  69 W28G48    29.99S WCI  11
SALIDA         FAIR      54  17  23 W22G28    29.87F
SUNLIGHT       LGT SNOW  27  23  86 SW10G20   29.93S WCI  17
WILKERSON PASS CLOUDY    34  12  40 W7G20     29.87F WCI  28
$$

COZ069>075-262200-
...SAN LUIS VALLEY/SANGRE DE CRISTO MOUNTAINS...

CITY           SKY/WX    TMP DP  RH WIND       PRES   REMARKS
ALAMOSA        FAIR      49  27  42 SE6       29.82F
LA VETA PASS   CLOUDY    34  27  75 SW16G29   29.98S WCI  23
SAGUACHE       FAIR      52  14  22 NW24G36   29.81F
$$

COZ035-036-038>040-262200-
...NORTHERN COLORADO FRONT RANGE...

CITY           SKY/WX    TMP DP  RH WIND       PRES   REMARKS
DENVER INTL AP FAIR      57  22  25 N8        29.71F
DMNS CITY PARK   N/A     59  22  23 N7G21     29.70F
AURORA         PTSUNNY   56  19  23 CALM      29.71F
FRONT RANGE AP PTSUNNY   59  25  27 N13       29.72F
ERIE MUNI ARPT FAIR      57  20  24 CALM      29.69F
BOULDER MUN AP PTSUNNY   57  23  26 CALM      29.69F
CENTENNIAL     PTSUNNY   55  18  23 W8        29.71F
BROOMFIELD     NOT AVBL
FORT COLLINS   FAIR      57  26  30 CALM      29.70F
LONGMONT       PTSUNNY   60  26  27 N7        29.70F
$$

COZ041-046-047-076>085-087-088-262200-
...PIKES PEAK/PALMER DIVIDE AND SOUTHERN FOOTHILLS...

CITY           SKY/WX    TMP DP  RH WIND       PRES   REMARKS
COLO. SPRINGS  PTSUNNY   54  29  38 S16       29.76F
A. F. ACADEMY  MOSUNNY   49  28  43 S8        29.75F
SCHRIEVER AFB  FAIR      48  31  52 SE7       29.78F
ELLICOTT       MIX PCPN N/A N/A N/A NE14G20   29.78R
FALCON         FAIR      49  27  42 SE9       29.79F
FORT CARSON    PTSUNNY   48  33  54 NE9       29.76F
LIMON          FAIR      56  27  32 NW15      29.73F
MONUMENT HILL  FAIR      46  27  46 W3        29.77F
TRINIDAD       FAIR      54  30  40 VRB3      29.77F
$$

COZ042>045-048>051-090-091-262200-
...NORTHEAST COLORADO...

CITY           SKY/WX    TMP DP  RH WIND       PRES   REMARKS
GREELEY ARPT   FAIR      61  27  27 W9        29.70F
AKRON          PTSUNNY   54  31  41 NW18G25   29.73S
BURLINGTON     NOT AVBL
WRAY           NOT AVBL
STERLING       CLOUDY    52  37  58 W21G26    29.72S
HOLYOKE        FAIR      61  32  33 N12       29.72S
FORT MORGAN    FAIR      54  36  51 NE17      29.72F
$$

COZ086-089-092>099-262200-
...SOUTHEAST COLORADO...

CITY           SKY/WX    TMP DP  RH WIND       PRES   REMARKS
PUEBLO         FAIR      57  29  34 VRB5      29.75F
LA JUNTA       FAIR      58  33  39 SE8       29.75F
LAMAR          FAIR      62  30  29 N10       29.73F
SPRINGFIELD      N/A     57  31  37 N21G31    29.77S
$$




USA.gov is the U.S. government's official web portal to all federal, state and local government web resources and services.